SKYSAT C7

导读 | 星芒AI

SKYSAT C7 是 Skybox Imaging(现为 Planet Labs 旗下)发射的一颗高分辨率商业 Earth Observation(EO)卫星。它属于 SkySat 系列,具备高分辨率光学成像能力,可提供亚米级分辨率的影像。该卫星支持快速重访和任务规划,适用于农业、城市规划、灾害监测等多个领域。SKYSAT C7 通过灵活的任务调度和高精度成像,增强了对地观测数据的获取能力,为用户提供实时、高质量的卫星图像服务。

基本信息
目录编号:
42991
目录名称:
SKYSAT C7
国际标识:
2017-068E
轨道中心:
EARTH
卫星名称:
SKYSAT C7
卫星全名:
--
卫星状态:
在轨 (已飞行2920 天)
发射日期:
2017-10-31 UTC
国别 :
美国 (US)
星等 :
--
轨道信息
数据来源 国际轨道数据
星历时间: 2025-10-29T15:22:39+0800
10小时前
查看轨道信息
半长轴: 6847.631km
偏心率: 0.0004591
轨道倾角: 97.425°
近地点辐角 194.976°
升交点赤经 73.227°
平近点角 165.134°
近地点: 466.352km
远地点: 472.64km
周期: 93.988分钟
每日圈数: 15.321184
详细信息
使用方式:
暂无
2D轨道图
3D轨道图
轨道高度分析图
轨道倾角分析图
轨道综合分析图
查看轨道综合分析图